Вернуться в каталог

CZ-6A DEB

АктивенPO
NORAD 61471·DEBRIS·🇨🇳 China

Запущен Aug 6, 2024 с Taiyuan Satellite Launch Center

Loading…

Ближайшие Пролёты (ближайшие 24 часа)

TLE

СвежийSource: Space-Track

Эпоха: Sep 14, 2026, 10:50 UTC

1 61471U 24140AAD 26257.45204415  .00001905  00000-0  99072-3 0  9992
2 61471  88.9044 257.7891 0102267 275.2519  83.7003 14.11693301102588

Отслеживайте CZ-6A DEB в реальном времени с AllMySat

Download on the App Store